Location: Centerville
(32.8776°N, 96.6203°W)
Time: 14:04:41
(UTC+00:00)

USA 229 - Pass Details

Date: 17 June 2021
Orbit: 956 x 1256 km, 63.5° (Epoch: 23 July)

Event Time Altitude Azimuth Distance (km) Brightness Sun altitude
Exits shadow 07:55:54 39° 291° (WNW) 1,457 4.3 -29.9°
Maximum altitude 07:56:39 40° 307° (NW) 1,434 4.4 -29.8°
Drops below altitude 10° 08:02:52 10° 16° (NNE) 2,855 6.8 -29.3°
Sets 08:05:47 0° 24° (NNE) 3,858 7.9 -29.0°
